Weather History for Orange City, IA

Change the Weather History Date:

Wednesday, October 9, 2013

  Actual Average Record
Temperature  
Mean Temperature 64 °F -  
Max Temperature 78 °F 68 °F 125 °F (1997)
Min Temperature 51 °F 44 °F 32 °F (2000)
Growing Degree Days 14 (Base 50)    
Moisture  
Dew Point 45 °F    
Average Humidity 52    
Maximum Humidity 77    
Minimum Humidity 26    
Precipitation  
Precipitation 0.00 in - - ()
Sea Level Pressure  
Sea Level Pressure 29.96 in    
Wind  
Wind Speed 11 mph (SSE)    
Max Wind Speed 17 mph    
Max Gust Speed 24 mph    
Visibility 10 miles    
Events      
Averages and records for this station are not official NWS values.
T = Trace of Precipitation, MM = Missing Value Source: NWS Daily Summary

Daily Weather History Graph

Daily Weather History Graph

Search for Another Location

Airport:

Trip Planner

Search our weather history database for the weather conditions in past years. The results will help you decide how hot, cold, wet, or windy it might be!

Date:

Astronomy

Oct. 09, 2013 Rise Set
Actual Time 7:31 AM CDT 6:51 PM CDT
Civil Twilight 7:02 AM CDT 7:19 PM CDT
Nautical Twilight 6:29 AM CDT 7:52 PM CDT
Astronomical Twilight 5:56 AM CDT 8:25 PM CDT
Moon 12:33 PM CDT (10/9) 10:20 PM CDT (10/9)
Length of Visible Light 12h 16m
Length of Day
11h 20m
Waxing Crescent, 25% of the Moon is Illuminated
Oct 9
Waxing Crescent
Oct 11
First Quarter
Oct 18
Full
Oct 26
Last Quarter
Nov 3
New

Hourly Weather History & Observations

Time (CDT) Temp. Dew Point Humidity Pressure Visibility Wind Dir Wind Speed Gust Speed Precip Events Conditions
12:15 AM 62.6 °F 42.8 °F 48% 29.92 in 10.0 mi South 16.1 mph 21.9 mph N/A   Clear
12:35 AM 62.6 °F 44.6 °F 52% 29.92 in 10.0 mi South 15.0 mph 21.9 mph N/A   Clear
12:55 AM 60.8 °F 44.6 °F 55% 29.92 in 10.0 mi South 15.0 mph 19.6 mph N/A   Clear
1:15 AM 60.8 °F 44.6 °F 55% 29.93 in 10.0 mi South 12.7 mph 18.4 mph N/A   Clear
1:35 AM 60.8 °F 44.6 °F 55% 29.93 in 10.0 mi South 13.8 mph - N/A   Clear
1:55 AM 60.8 °F 44.6 °F 55% 29.93 in 10.0 mi South 16.1 mph 23.0 mph N/A   Clear
2:15 AM 60.8 °F 44.6 °F 55% 29.93 in 10.0 mi South 15.0 mph 19.6 mph N/A   Clear
2:35 AM 59.0 °F 44.6 °F 59% 29.93 in 10.0 mi South 16.1 mph 23.0 mph N/A   Clear
2:55 AM 60.8 °F 44.6 °F 55% 29.93 in 10.0 mi South 16.1 mph - N/A   Clear
3:15 AM 59.0 °F 44.6 °F 59% 29.94 in 10.0 mi South 11.5 mph - N/A   Clear
3:35 AM 57.2 °F 44.6 °F 63% 29.94 in 10.0 mi South 10.4 mph - N/A   Clear
3:55 AM 57.2 °F 44.6 °F 63% 29.94 in 10.0 mi South 9.2 mph - N/A   Clear
4:15 AM 57.2 °F 46.4 °F 67% 29.94 in 10.0 mi South 9.2 mph - N/A   Clear
4:35 AM 55.4 °F 46.4 °F 72% 29.95 in 10.0 mi South 8.1 mph - N/A   Clear
4:55 AM 55.4 °F 46.4 °F 72% 29.95 in 10.0 mi South 10.4 mph - N/A   Clear
5:15 AM 53.6 °F 46.4 °F 77% 29.95 in 10.0 mi South 9.2 mph - N/A   Clear
5:35 AM 53.6 °F 44.6 °F 72% 29.95 in 10.0 mi South 9.2 mph 16.1 mph N/A   Clear
5:55 AM 53.6 °F 44.6 °F 72% 29.95 in 10.0 mi South 8.1 mph - N/A   Clear
6:15 AM 53.6 °F 44.6 °F 72% 29.95 in 10.0 mi South 8.1 mph - N/A   Clear
6:35 AM 53.6 °F 44.6 °F 72% 29.96 in 10.0 mi SSE 6.9 mph - N/A   Clear
6:55 AM 53.6 °F 44.6 °F 72% 29.96 in 10.0 mi South 4.6 mph - N/A   Clear
7:15 AM 51.8 °F 44.6 °F 76% 29.96 in 10.0 mi SSE 5.8 mph - N/A   Clear
7:35 AM 51.8 °F 44.6 °F 76% 29.97 in 10.0 mi SSE 4.6 mph - N/A   Clear
7:55 AM 51.8 °F 44.6 °F 76% 29.98 in 10.0 mi Calm Calm - N/A   Clear
8:15 AM 51.8 °F 42.8 °F 71% 29.98 in 10.0 mi Calm Calm - N/A   Clear
8:35 AM 53.6 °F 44.6 °F 72% 29.99 in 10.0 mi SE 3.5 mph - N/A   Clear
8:55 AM 53.6 °F 44.6 °F 72% 29.99 in 10.0 mi ESE 3.5 mph - N/A   Clear
9:15 AM 55.4 °F 46.4 °F 72% 29.99 in 10.0 mi Calm Calm - N/A   Clear
9:35 AM 59.0 °F 46.4 °F 63% 29.99 in 10.0 mi SSE 6.9 mph - N/A   Clear
9:55 AM 60.8 °F 46.4 °F 59% 29.99 in 10.0 mi South 9.2 mph - N/A   Clear
10:15 AM 60.8 °F 46.4 °F 59% 29.99 in 10.0 mi South 9.2 mph - N/A   Clear
10:35 AM 62.6 °F 46.4 °F 55% 30.00 in 10.0 mi South 10.4 mph 16.1 mph N/A   Clear
10:55 AM 66.2 °F 46.4 °F 49% 29.99 in 10.0 mi SSW 16.1 mph - N/A   Clear
11:15 AM 68.0 °F 46.4 °F 46% 29.99 in 10.0 mi South 13.8 mph 20.7 mph N/A   Clear
11:35 AM 69.8 °F 44.6 °F 40% 29.99 in 10.0 mi South 13.8 mph 21.9 mph N/A   Clear
11:55 AM 69.8 °F 44.6 °F 40% 29.99 in 10.0 mi South 12.7 mph - N/A   Clear
12:15 PM 71.6 °F 44.6 °F 38% 29.99 in 10.0 mi South 13.8 mph - N/A   Clear
12:35 PM 71.6 °F 44.6 °F 38% 29.98 in 10.0 mi South 10.4 mph 17.3 mph N/A   Clear
12:55 PM 73.4 °F 44.6 °F 36% 29.98 in 10.0 mi South 12.7 mph - N/A   Clear
1:15 PM 75.2 °F 44.6 °F 34% 29.97 in 10.0 mi South 13.8 mph 18.4 mph N/A   Clear
1:35 PM 75.2 °F 42.8 °F 31% 29.97 in 10.0 mi South 13.8 mph 18.4 mph N/A   Clear
1:55 PM 75.2 °F 42.8 °F 31% 29.96 in 10.0 mi South 12.7 mph 19.6 mph N/A   Clear
2:15 PM 77.0 °F 42.8 °F 29% 29.95 in 10.0 mi SSE 12.7 mph 21.9 mph N/A   Clear
2:35 PM 78.8 °F 42.8 °F 28% 29.95 in 10.0 mi South 15.0 mph 20.7 mph N/A   Clear
2:55 PM 78.8 °F 42.8 °F 28% 29.94 in 10.0 mi SSE 13.8 mph - N/A   Clear
3:15 PM 78.8 °F 41.0 °F 26% 29.94 in 10.0 mi SSE 17.3 mph 24.2 mph N/A   Clear
3:55 PM 78.8 °F 41.0 °F 26% 29.93 in 10.0 mi South 11.5 mph 21.9 mph N/A   Clear
4:15 PM 78.8 °F 41.0 °F 26% 29.92 in 10.0 mi South 17.3 mph 23.0 mph N/A   Clear
4:35 PM 78.8 °F 41.0 °F 26% 29.92 in 10.0 mi SSE 12.7 mph 23.0 mph N/A   Clear
4:55 PM 78.8 °F 42.8 °F 28% 29.92 in 10.0 mi SSE 17.3 mph 24.2 mph N/A   Clear
5:15 PM 78.8 °F 42.8 °F 28% 29.92 in 10.0 mi SSE 15.0 mph 21.9 mph N/A   Clear
5:35 PM 77.0 °F 42.8 °F 29% 29.92 in 10.0 mi SSE 12.7 mph 18.4 mph N/A   Clear
5:55 PM 75.2 °F 44.6 °F 34% 29.92 in 10.0 mi SSE 11.5 mph 20.7 mph N/A   Clear
6:15 PM 75.2 °F 44.6 °F 34% 29.92 in 10.0 mi SSE 11.5 mph 19.6 mph N/A   Clear
6:55 PM 71.6 °F 44.6 °F 38% 29.92 in 10.0 mi SSE 11.5 mph 19.6 mph N/A   Clear
7:15 PM 69.8 °F 46.4 °F 43% 29.93 in 10.0 mi SSE 9.2 mph - N/A   Clear
7:35 PM 69.8 °F 46.4 °F 43% 29.94 in 10.0 mi SSE 8.1 mph - N/A   Clear
7:55 PM 69.8 °F 46.4 °F 43% 29.94 in 10.0 mi SSE 8.1 mph - N/A   Clear
8:15 PM 66.2 °F 46.4 °F 49% 29.95 in 10.0 mi SSE 6.9 mph - N/A   Clear
8:35 PM 66.2 °F 48.2 °F 52% 29.96 in 10.0 mi SSE 5.8 mph - N/A   Clear
8:55 PM 64.4 °F 48.2 °F 56% 29.96 in 10.0 mi SSE 6.9 mph - N/A   Clear
9:15 PM 64.4 °F 48.2 °F 56% 29.97 in 10.0 mi SSE 6.9 mph - N/A   Clear
9:35 PM 64.4 °F 46.4 °F 52% 29.98 in 10.0 mi SE 4.6 mph - N/A   Clear
9:55 PM 64.4 °F 46.4 °F 52% 29.98 in 10.0 mi SSE 6.9 mph - N/A   Clear
10:15 PM 62.6 °F 46.4 °F 55% 29.98 in 10.0 mi SSE 8.1 mph - N/A   Clear
10:35 PM 60.8 °F 46.4 °F 59% 29.98 in 10.0 mi SE 5.8 mph - N/A   Clear
10:55 PM 60.8 °F 46.4 °F 59% 29.98 in 10.0 mi SSE 6.9 mph - N/A   Clear
11:15 PM 60.8 °F 46.4 °F 59% 29.99 in 10.0 mi SSE 6.9 mph - N/A   Clear
11:55 PM 57.2 °F 46.4 °F 67% 29.99 in 10.0 mi SSE 5.8 mph - N/A   Clear